Simultaneous Nadir Overpasses (SNOs) Predictions

Prediction of SNOs between NOAA-20 and METOP-C Satellite Orbit:

Table of predicted SNOs for the next 14.0 days since TLE Epoch: 11/13/2025
Index Date (NOAA-20) Time (NOAA-20) Lat,Lon (NOAA-20) SZA (NOAA-20 ) Date (METOP-C) Time (METOP-C) Lat,Lon (METOP-C) SZA (METOP-C ) Distance(km) Time Diff (sec)
1 11/26/2025 08:53:34 73.43, 36.92 94.45 11/26/2025 08:54:40 73.41, 39.89 94.36 94.13 66
2 11/26/2025 09:44:17 -73.38,-155.66 85.60 11/26/2025 09:45:24 -73.33,-152.96 85.72 86.08 67
3 11/26/2025 10:34:58 73.13, 12.22 94.14 11/26/2025 10:36:08 73.08, 13.83 94.05 52.19 70
4 11/26/2025 11:25:41 -73.08, 179.63 85.90 11/26/2025 11:26:52 -73.00,-179.01 86.02 44.79 71
5 11/26/2025 12:16:22 72.82, -12.50 93.83 11/26/2025 12:17:35 72.81, -12.10 93.80 13.40 73
6 11/26/2025 13:07:05 -72.78, 154.90 86.21 11/26/2025 13:08:19 -72.73, 155.07 86.27 8.03 74
7 11/26/2025 13:57:50 72.72, -37.66 93.74 11/26/2025 13:58:58 72.73, -37.59 93.74 2.49 68
8 11/26/2025 14:48:34 -72.73, 129.64 86.25 11/26/2025 14:49:41 -72.70, 129.68 86.28 3.25 67
9 11/26/2025 15:39:20 72.72, -63.04 93.75 11/26/2025 15:40:20 72.71, -62.98 93.73 2.40 60
10 11/26/2025 16:30:03 -72.68, 104.37 86.29 11/26/2025 16:31:03 -72.68, 104.29 86.29 2.64 60
11 11/26/2025 17:20:49 72.67, -88.30 93.71 11/26/2025 17:21:42 72.68, -88.37 93.72 2.65 53
12 11/26/2025 18:11:33 -72.68, 78.99 86.28 11/26/2025 18:12:24 -72.71, 79.00 86.25 3.12 51
13 11/26/2025 19:02:19 72.67,-113.68 93.72 11/26/2025 19:03:04 72.66,-113.76 93.71 3.08 45
14 11/26/2025 19:53:03 -72.68, 53.62 86.26 11/26/2025 19:53:46 -72.68, 53.61 86.26 0.58 43
15 11/26/2025 20:43:49 72.67,-139.05 93.74 11/26/2025 20:44:25 72.68,-139.05 93.75 1.78 36
16 11/26/2025 21:34:33 -72.68, 28.25 86.25 11/26/2025 21:35:08 -72.66, 28.22 86.27 2.23 35
17 11/26/2025 22:25:19 72.67,-164.42 93.75 11/26/2025 22:25:47 72.66,-164.44 93.74 0.96 28
18 11/26/2025 23:16:03 -72.68, 2.87 86.24 11/26/2025 23:16:29 -72.68, 2.94 86.24 2.31 26
19 11/27/2025 00:06:49 72.67, 170.20 93.76 11/27/2025 00:07:08 72.69, 170.28 93.78 3.30 19
20 11/27/2025 00:57:33 -72.68, -22.50 86.23 11/27/2025 00:57:51 -72.66, -22.45 86.25 2.29 18
21 11/27/2025 01:48:19 72.67, 144.83 93.77 11/27/2025 01:48:30 72.66, 144.89 93.77 2.01 11
22 11/27/2025 02:39:02 -72.62, -47.77 86.27 11/27/2025 02:39:13 -72.64, -47.84 86.26 2.76 11
23 11/27/2025 03:29:48 72.61, 119.56 93.73 11/27/2025 03:29:52 72.64, 119.50 93.76 3.26 4



Historial Predications of SNOs between NOAA-20 and METOP-C
